FW8756 Weather Reports


Display with metric or nautical units.
time (UTC)temp
F
wind
direction
speed
MPH
gust
MPH
rain 1hr
in
rain 24hr
in
rain mn
in
humidity
%
barometer
mb
20260901054533 82 156 0.0 0.0 0.00 0.00 0.00 83 1014.5
20260901054028 82 154 0.0 0.0 0.00 0.00 0.00 83 1014.4
20260901053524 82 152 0.0 0.0 0.00 0.00 0.00 82 1014.4
20260901053020 82 149 0.0 0.0 0.00 0.00 0.00 82 1014.4
20260901052520 82 146 0.0 0.0 0.00 0.00 0.00 82 1014.6
20260901052020 82 151 0.0 0.0 0.00 0.00 0.00 82 1014.6
20260901051515 82 148 0.0 1.0 0.00 0.00 0.00 82 1014.1
20260901051014 82 157 0.0 0.0 0.00 0.00 0.00 82 1014.3
20260901050509 82 153 0.0 1.0 0.00 0.00 0.00 82 1014.3
20260901050004 82 153 0.0 0.0 0.00 0.00 0.00 82 1014.1
20260901045459 82 165 0.0 0.0 0.00 0.00 0.00 82 1014.1
20260901044954 82 159 0.0 0.0 0.00 0.00 0.00 82 1014.3
20260901044449 82 124 1.0 2.0 0.00 0.00 0.00 82 1014.3
20260901043945 82 144 1.0 1.0 0.00 0.00 0.00 81 1014.3
20260901043442 82 121 1.0 1.0 0.00 0.00 0.00 81 1014.2
20260901042942 82 168 3.0 5.0 0.00 0.00 0.00 81 1014.0
20260901042441 82 158 0.0 0.0 0.00 0.00 0.00 81 1014.2
20260901041936 82 113 1.0 1.0 0.00 0.00 0.00 81 1013.9
20260901041432 82 142 1.0 2.0 0.00 0.00 0.00 82 1014.2
20260901040931 82 142 1.0 2.0 0.00 0.00 0.00 82 1014.3
20260901040426 82 157 1.0 1.0 0.00 0.00 0.00 84 1014.1
20260901035925 81 81 0.0 1.0 0.00 0.00 0.00 85 1014.2
20260901035424 81 140 0.0 0.0 0.00 0.00 0.00 86 1014.0
20260901034923 81 121 0.0 0.0 0.00 0.00 0.00 86 1013.9
20260901034418 82 139 0.0 0.0 0.00 0.00 0.00 86 1013.7
20260901033913 82 136 0.0 0.0 0.00 0.00 0.00 86 1013.9
20260901033412 82 135 0.0 0.0 0.00 0.00 0.00 85 1013.4
20260901032910 82 140 0.0 0.0 0.00 0.00 0.00 85 1013.4
20260901032410 82 140 0.0 0.0 0.00 0.00 0.00 85 1013.5
20260901031905 82 140 0.0 0.0 0.00 0.00 0.00 85 1013.3
20260901031401 82 140 0.0 0.0 0.00 0.00 0.00 85 1013.0
20260901030900 82 139 0.0 0.0 0.00 0.00 0.00 85 1013.1
20260901030356 82 139 0.0 0.0 0.00 0.00 0.00 85 1013.2
20260901025855 82 128 0.0 0.0 0.00 0.00 0.00 84 1013.0
20260901025350 82 143 0.0 0.0 0.00 0.00 0.00 84 1013.1
20260901024845 82 139 0.0 0.0 0.00 0.00 0.00 84 1013.1
20260901024344 82 119 0.0 0.0 0.00 0.00 0.00 84 1013.1
20260901023842 82 154 0.0 0.0 0.00 0.00 0.00 83 1013.1
20260901023338 82 127 0.0 0.0 0.00 0.00 0.00 83 1012.9
20260901022833 82 138 0.0 0.0 0.00 0.00 0.00 83 1013.0
20260901022329 82 135 0.0 0.0 0.00 0.00 0.00 83 1012.8
20260901021824 82 137 0.0 0.0 0.00 0.00 0.00 83 1012.8
20260901021320 82 138 0.0 0.0 0.00 0.00 0.00 83 1012.7
20260901020814 83 139 0.0 0.0 0.00 0.00 0.00 83 1012.8
20260901020309 83 137 0.0 0.0 0.00 0.00 0.00 82 1012.7
20260901015804 83 138 0.0 0.0 0.00 0.00 0.00 83 1012.8
20260901015300 83 140 0.0 0.0 0.00 0.00 0.00 83 1012.5
20260901014759 83 138 0.0 0.0 0.00 0.00 0.00 82 1012.7
20260901014255 83 140 0.0 0.0 0.00 0.00 0.00 82 1012.7
20260901013751 83 139 0.0 0.0 0.00 0.00 0.00 82 1012.6
20260901013246 83 139 0.0 0.0 0.00 0.00 0.00 82 1012.6
20260901012741 83 138 0.0 0.0 0.00 0.00 0.00 82 1012.5
20260901012241 83 139 0.0 0.0 0.00 0.00 0.00 82 1012.3
20260901011737 83 133 0.0 0.0 0.00 0.00 0.00 82 1012.5
20260901011232 84 134 0.0 0.0 0.00 0.00 0.00 82 1012.6
20260901010726 84 129 0.0 0.0 0.00 0.00 0.00 81 1012.1
20260901010221 84 139 0.0 0.0 0.00 0.00 0.00 80 1012.3
20260901005719 84 150 0.0 0.0 0.00 0.00 0.00 79 1012.2
20260901005215 84 148 0.0 0.0 0.00 0.00 0.00 79 1012.2
20260901004715 84 152 0.0 0.0 0.00 0.00 0.00 79 1012.2
20260901004209 84 143 0.0 0.0 0.00 0.00 0.00 79 1012.5
20260901003703 84 145 0.0 0.0 0.00 0.00 0.00 79 1012.5
20260901003203 85 147 0.0 0.0 0.00 0.00 0.00 79 1012.7
20260901002657 85 141 0.0 0.0 0.00 0.00 0.00 79 1012.5
20260901002152 85 139 0.0 0.0 0.00 0.00 0.00 78 1012.7
20260901001648 85 149 0.0 0.0 0.00 0.00 0.00 78 1012.8
20260901001142 85 151 0.0 0.0 0.00 0.00 0.00 78 1012.5
20260901000638 85 155 0.0 0.0 0.00 0.00 0.00 78 1012.6
20260901000133 85 145 0.0 0.0 0.00 0.00 0.00 78 1012.5
20260831235627 85 144 0.0 0.0 0.00 0.00 0.00 77 1012.2
20260831235122 85 156 0.0 0.0 0.00 0.00 0.00 77 1012.5
20260831234621 85 146 0.0 0.0 0.00 0.00 0.00 77 1012.7
20260831234117 85 100 2.0 3.0 0.00 0.00 0.00 77 1012.7
20260831233612 85 205 0.0 0.0 0.00 0.00 0.00 77 1012.5
20260831233108 85 148 1.0 1.0 0.00 0.00 0.00 77 1012.5
20260831232603 85 165 0.0 1.0 0.00 0.00 0.00 76 1012.5
20260831232059 85 164 1.0 1.0 0.00 0.00 0.00 76 1012.7
20260831231555 85 168 0.0 0.0 0.00 0.00 0.00 75 1012.9
20260831231050 86 192 2.0 2.0 0.00 0.00 0.00 75 1012.9
20260831230545 86 252 2.0 3.0 0.00 0.00 0.00 74 1012.8
20260831230040 86 150 3.0 3.0 0.00 0.00 0.00 74 1012.5
20260831225536 86 171 0.0 0.0 0.00 0.00 0.00 73 1012.6
20260831225036 86 92 2.0 3.0 0.00 0.00 0.00 72 1012.6
20260831224531 86 164 3.0 5.0 0.00 0.00 0.00 71 1012.6
20260831224026 88 109 0.0 1.0 0.00 0.00 0.00 70 1012.3
20260831223521 89 159 1.0 2.0 0.00 0.00 0.00 66 1012.5
20260831223018 90 178 7.0 8.0 0.00 0.00 0.00 65 1012.7
20260831222514 91 157 0.0 1.0 0.00 0.00 0.00 65 1012.6
20260831222013 91 151 0.0 0.0 0.00 0.00 0.00 63 1012.5
20260831221509 92 157 1.0 2.0 0.00 0.00 0.00 62 1012.3
20260831221004 93 149 1.0 3.0 0.00 0.00 0.00 60 1012.3
20260831220459 95 55 8.0 13.0 0.00 0.00 0.00 56 1012.1
20260831215954 95 144 0.0 0.0 0.00 0.00 0.00 54 1012.1
20260831215450 96 149 2.0 2.0 0.00 0.00 0.00 53 1012.2
20260831214946 96 137 1.0 2.0 0.00 0.00 0.00 53 1012.0
20260831214443 96 117 5.0 7.0 0.00 0.00 0.00 53 1012.5
20260831213939 96 77 1.0 1.0 0.00 0.00 0.00 52 1012.2
20260831213435 97 175 1.0 1.0 0.00 0.00 0.00 50 1012.5
20260831212935 98 69 1.0 1.0 0.00 0.00 0.00 51 1012.3
20260831212431 98 157 0.0 1.0 0.00 0.00 0.00 51 1012.6
20260831211931 98 199 2.0 2.0 0.00 0.00 0.00 50 1012.5
20260831211426 101 193 4.0 6.0 0.00 0.00 0.00 48 1012.6
20260831210925 102 166 1.0 1.0 0.00 0.00 0.00 47 1012.5
20260831210421 99 160 1.0 1.0 0.00 0.00 0.00 50 1012.6
20260831205917 101 204 1.0 2.0 0.00 0.00 0.00 47 1012.8
20260831205412 102 258 3.0 3.0 0.00 0.00 0.00 48 1012.8
20260831204907 101 187 3.0 5.0 0.00 0.00 0.00 48 1013.0
20260831204406 99 119 0.0 1.0 0.00 0.00 0.00 50 1012.9
20260831203906 101 76 0.0 0.0 0.00 0.00 0.00 48 1013.0
20260831203400 97 125 0.0 0.0 0.00 0.00 0.00 52 1012.9
20260831202858 98 152 1.0 1.0 0.00 0.00 0.00 52 1013.2
20260831202354 98 191 1.0 2.0 0.00 0.00 0.00 51 1013.3
20260831201853 100 176 1.0 1.0 0.00 0.00 0.00 49 1013.3
20260831201352 100 240 5.0 6.0 0.00 0.00 0.00 49 1013.2
20260831200849 99 147 1.0 2.0 0.00 0.00 0.00 50 1013.3
20260831200343 98 169 2.0 2.0 0.00 0.00 0.00 52 1013.5
20260831195838 98 183 0.0 0.0 0.00 0.00 0.00 52 1013.8
20260831195334 99 199 1.0 1.0 0.00 0.00 0.00 50 1013.7
20260831194830 100 267 4.0 5.0 0.00 0.00 0.00 51 1013.6
20260831194325 97 287 2.0 2.0 0.00 0.00 0.00 54 1013.7
20260831193824 99 149 5.0 6.0 0.00 0.00 0.00 54 1013.9
20260831193319 98 169 4.0 5.0 0.00 0.00 0.00 53 1014.0
20260831192814 96 160 0.0 1.0 0.00 0.00 0.00 55 1014.1
20260831192309 95 161 0.0 0.0 0.00 0.00 0.00 57 1014.2
20260831191805 95 150 0.0 0.0 0.00 0.00 0.00 57 1014.3
20260831191301 93 161 0.0 0.0 0.00 0.00 0.00 59 1014.2
20260831190756 93 154 0.0 1.0 0.00 0.00 0.00 59 1014.4
20260831190250 96 185 1.0 1.0 0.00 0.00 0.00 55 1014.3
20260831185744 98 210 2.0 3.0 0.00 0.00 0.00 54 1014.5
20260831185240 100 172 2.0 2.0 0.00 0.00 0.00 52 1014.6
20260831184739 98 236 3.0 6.0 0.00 0.00 0.00 54 1014.7
20260831184235 96 187 0.0 0.0 0.00 0.00 0.00 56 1014.9
20260831183735 96 215 5.0 6.0 0.00 0.00 0.00 56 1014.7
20260831183230 94 159 0.0 0.0 0.00 0.00 0.00 59 1015.1
20260831182728 97 203 0.0 1.0 0.00 0.00 0.00 56 1015.1
20260831182224 96 266 5.0 7.0 0.00 0.00 0.00 57 1015.1
20260831181724 97 164 1.0 2.0 0.00 0.00 0.00 56 1015.1
20260831181220 94 169 0.0 0.0 0.00 0.00 0.00 59 1015.3
20260831180714 94 235 5.0 6.0 0.00 0.00 0.00 60 1015.2
20260831180209 95 256 2.0 2.0 0.00 0.00 0.00 59 1015.3
20260831175709 95 139 3.0 3.0 0.00 0.00 0.00 59 1015.5
20260831175206 95 275 4.0 5.0 0.00 0.00 0.00 60 1015.5
20260831174705 93 300 3.0 5.0 0.00 0.00 0.00 61 1015.3
20260831174201 92 125 0.0 0.0 0.00 0.00 0.00 62 1015.6
20260831173659 93 98 3.0 3.0 0.00 0.00 0.00 62 1015.6
20260831173155 93 313 2.0 3.0 0.00 0.00 0.00 60 1015.5
20260831172655 94 176 3.0 3.0 0.00 0.00 0.00 60 1015.7
20260831172150 93 253 5.0 6.0 0.00 0.00 0.00 62 1015.8
20260831171645 93 270 4.0 5.0 0.00 0.00 0.00 63 1015.8
20260831171142 92 178 5.0 6.0 0.00 0.00 0.00 63 1015.7
20260831170638 90 245 4.0 5.0 0.00 0.00 0.00 65 1016.0
20260831170135 90 219 2.0 2.0 0.00 0.00 0.00 65 1016.1
20260831165630 90 223 2.0 2.0 0.00 0.00 0.00 65 1015.8
20260831165127 91 287 3.0 3.0 0.00 0.00 0.00 63 1016.0
20260831164623 91 156 2.0 2.0 0.00 0.00 0.00 63 1016.1
20260831164118 93 253 4.0 5.0 0.00 0.00 0.00 61 1016.1
20260831163613 95 156 1.0 1.0 0.00 0.00 0.00 59 1015.9
20260831163109 95 229 1.0 2.0 0.00 0.00 0.00 58 1015.9
20260831162608 94 155 1.0 2.0 0.00 0.00 0.00 59 1016.3
20260831162106 95 275 5.0 5.0 0.00 0.00 0.00 58 1016.1
20260831161602 92 144 4.0 5.0 0.00 0.00 0.00 61 1016.0
20260831161059 92 156 0.0 0.0 0.00 0.00 0.00 61 1016.1
20260831160557 91 149 1.0 1.0 0.00 0.00 0.00 63 1016.2
20260831160053 91 151 2.0 2.0 0.00 0.00 0.00 64 1016.4
20260831155547 91 234 3.0 3.0 0.00 0.00 0.00 65 1016.2
20260831155043 90 212 2.0 2.0 0.00 0.00 0.00 66 1016.1
20260831154539 91 220 2.0 2.0 0.00 0.00 0.00 65 1016.4
20260831154038 91 198 2.0 2.0 0.00 0.00 0.00 68 1016.2
20260831153532 89 173 3.0 3.0 0.00 0.00 0.00 70 1016.0
20260831153029 89 208 4.0 5.0 0.00 0.00 0.00 70 1016.4
20260831152524 88 172 2.0 2.0 0.00 0.00 0.00 71 1015.8
20260831152020 89 172 0.0 1.0 0.00 0.00 0.00 71 1016.0
20260831151519 88 149 0.0 0.0 0.00 0.00 0.00 72 1016.1
20260831151019 87 161 0.0 0.0 0.00 0.00 0.00 74 1016.0
20260831150514 86 207 2.0 2.0 0.00 0.00 0.00 76 1016.0
20260831150011 85 219 3.0 5.0 0.00 0.00 0.00 79 1016.1
20260831145505 85 143 0.0 0.0 0.00 0.00 0.00 79 1016.0
20260831145001 87 209 0.0 0.0 0.00 0.00 0.00 78 1016.0
20260831144456 85 154 0.0 0.0 0.00 0.00 0.00 80 1016.0
20260831143951 86 151 0.0 0.0 0.00 0.00 0.00 79 1015.8
20260831143440 85 166 0.0 0.0 0.00 0.00 0.00 79 1015.9
20260831142935 86 158 0.0 0.0 0.00 0.00 0.00 78 1015.8
20260831142427 85 157 0.0 0.0 0.00 0.00 0.00 80 1015.8
20260831141926 85 107 0.0 0.0 0.00 0.00 0.00 80 1015.7
20260831141420 85 164 0.0 0.0 0.00 0.00 0.00 81 1015.7
20260831140915 84 147 0.0 0.0 0.00 0.00 0.00 82 1015.8
20260831140410 84 162 1.0 2.0 0.00 0.00 0.00 82 1015.7
20260831135909 85 160 0.0 0.0 0.00 0.00 0.00 80 1015.6
20260831135408 85 150 0.0 0.0 0.00 0.00 0.00 81 1015.7
20260831134904 84 150 0.0 0.0 0.00 0.00 0.00 82 1015.4
20260831134400 83 202 0.0 1.0 0.00 0.00 0.00 83 1015.5
20260831133859 84 268 0.0 2.0 0.00 0.00 0.00 82 1015.4
20260831133354 84 151 0.0 0.0 0.00 0.00 0.00 82 1015.6
20260831132849 83 150 0.0 0.0 0.00 0.00 0.00 83 1015.6
20260831132344 83 148 0.0 0.0 0.00 0.00 0.00 84 1015.2
20260831131844 82 192 0.0 0.0 0.00 0.00 0.00 85 1015.3
20260831131340 81 150 0.0 0.0 0.00 0.00 0.00 86 1015.3
20260831130835 81 149 1.0 1.0 0.00 0.00 0.00 88 1015.4
20260831130331 80 148 0.0 0.0 0.00 0.00 0.00 88 1015.5
20260831125829 80 147 0.0 0.0 0.00 0.00 0.00 89 1015.3
20260831125325 79 148 0.0 0.0 0.00 0.00 0.00 90 1015.3
20260831124825 78 143 0.0 0.0 0.00 0.00 0.00 90 1015.5
20260831124321 78 147 0.0 0.0 0.00 0.00 0.00 90 1015.1
20260831123821 78 150 0.0 0.0 0.00 0.00 0.00 90 1015.1
20260831123320 78 151 0.0 0.0 0.00 0.00 0.00 89 1015.0
20260831122815 78 149 0.0 0.0 0.00 0.00 0.00 89 1014.8
20260831122311 78 148 0.0 0.0 0.00 0.00 0.00 89 1014.7
20260831121810 78 151 0.0 0.0 0.00 0.00 0.00 89 1014.7
20260831121307 78 146 0.0 0.0 0.00 0.00 0.00 89 1014.8
20260831120802 78 150 0.0 0.0 0.00 0.00 0.00 89 1014.8
20260831120256 78 149 0.0 0.0 0.00 0.00 0.00 89 1014.7
20260831115751 78 145 0.0 0.0 0.00 0.00 0.00 89 1014.7
20260831115248 78 148 0.0 0.0 0.00 0.00 0.00 88 1014.5
20260831114747 78 143 0.0 0.0 0.00 0.00 0.00 88 1014.5
20260831114246 78 145 0.0 0.0 0.00 0.00 0.00 88 1014.6
20260831113742 78 140 0.0 0.0 0.00 0.00 0.00 88 1014.3
20260831113236 79 149 0.0 0.0 0.00 0.00 0.00 88 1014.5
20260831112735 79 160 0.0 0.0 0.00 0.00 0.00 88 1014.5
20260831112231 79 153 0.0 0.0 0.00 0.00 0.00 88 1014.3
20260831111727 79 179 1.0 1.0 0.00 0.00 0.00 88 1014.3
20260831111223 79 151 0.0 0.0 0.00 0.00 0.00 88 1014.5
20260831110718 79 155 0.0 0.0 0.00 0.00 0.00 88 1014.7
20260831110214 79 156 0.0 0.0 0.00 0.00 0.00 88 1014.5
20260831105712 80 176 1.0 1.0 0.00 0.00 0.00 88 1014.1
20260831105208 79 140 0.0 0.0 0.00 0.00 0.00 87 1014.5
20260831104702 79 163 0.0 1.0 0.00 0.00 0.00 87 1014.3
20260831104159 79 150 3.0 3.0 0.00 0.00 0.00 87 1014.4
20260831103654 79 146 0.0 0.0 0.00 0.00 0.00 88 1014.4
20260831103149 79 153 0.0 0.0 0.00 0.00 0.00 87 1014.5
20260831102649 79 158 0.0 0.0 0.00 0.00 0.00 87 1014.3
20260831102144 79 152 0.0 0.0 0.00 0.00 0.00 87 1014.3
20260831101639 79 150 0.0 0.0 0.00 0.00 0.00 87 1014.5
20260831101135 79 153 0.0 0.0 0.00 0.00 0.00 87 1014.3
20260831100631 79 152 0.0 0.0 0.00 0.00 0.00 87 1014.5
20260831100127 79 159 0.0 0.0 0.00 0.00 0.00 87 1014.4
20260831095625 79 163 0.0 0.0 0.00 0.00 0.00 87 1014.4
20260831095120 79 154 0.0 0.0 0.00 0.00 0.00 87 1014.4
20260831094615 79 154 0.0 0.0 0.00 0.00 0.00 87 1014.4
20260831094111 79 150 0.0 0.0 0.00 0.00 0.00 87 1014.2
20260831093607 79 157 0.0 0.0 0.00 0.00 0.00 87 1014.3
20260831093103 79 157 0.0 0.0 0.00 0.00 0.00 87 1014.4
20260831092558 79 151 0.0 0.0 0.00 0.00 0.00 87 1014.5
20260831092054 79 145 0.0 0.0 0.00 0.00 0.00 87 1014.2
20260831091553 79 178 0.0 0.0 0.00 0.00 0.00 87 1014.2
20260831091049 79 151 0.0 0.0 0.00 0.00 0.00 86 1014.1
20260831090544 79 150 0.0 0.0 0.00 0.00 0.00 86 1014.2
20260831090040 79 150 0.0 0.0 0.00 0.00 0.00 86 1014.1
20260831085535 79 151 0.0 0.0 0.00 0.00 0.00 86 1014.3
20260831085030 80 150 0.0 0.0 0.00 0.00 0.00 85 1014.4
20260831084526 80 154 0.0 0.0 0.00 0.00 0.00 85 1014.2
20260831084023 80 151 0.0 0.0 0.00 0.00 0.00 85 1014.3
20260831083518 80 156 0.0 0.0 0.00 0.00 0.00 85 1014.5
20260831083017 80 153 0.0 0.0 0.00 0.00 0.00 85 1014.4
20260831082512 81 151 0.0 0.0 0.00 0.00 0.00 84 1014.4
20260831082007 80 153 0.0 0.0 0.00 0.00 0.00 84 1014.4
20260831081503 81 154 0.0 0.0 0.00 0.00 0.00 84 1014.2
20260831080958 81 152 0.0 0.0 0.00 0.00 0.00 84 1014.5
20260831080452 81 152 0.0 0.0 0.00 0.00 0.00 84 1014.3
20260831075948 81 148 0.0 0.0 0.00 0.00 0.00 83 1014.4
20260831075444 81 155 0.0 0.0 0.00 0.00 0.00 83 1014.4
20260831074939 81 171 0.0 0.0 0.00 0.00 0.00 83 1014.4
20260831074438 81 158 0.0 0.0 0.00 0.00 0.00 82 1014.2
20260831073933 82 160 0.0 0.0 0.00 0.00 0.00 82 1014.4
20260831073432 82 161 1.0 1.0 0.00 0.00 0.00 82 1014.3
20260831072927 82 173 1.0 1.0 0.00 0.00 0.00 82 1014.3
20260831072423 82 166 1.0 1.0 0.00 0.00 0.00 82 1014.4
20260831071919 82 168 1.0 1.0 0.00 0.00 0.00 81 1014.4
20260831071418 82 214 2.0 2.0 0.00 0.00 0.00 81 1014.4
20260831070918 82 189 2.0 2.0 0.00 0.00 0.00 81 1014.3
20260831070418 82 181 2.0 2.0 0.00 0.00 0.00 80 1014.4
20260831065917 82 119 0.0 1.0 0.00 0.00 0.00 80 1014.5
20260831065414 82 163 1.0 1.0 0.00 0.00 0.00 80 1014.5
20260831064910 82 171 2.0 2.0 0.00 0.00 0.00 80 1014.3
20260831064405 82 164 0.0 0.0 0.00 0.00 0.00 80 1014.6
20260831063900 82 152 0.0 0.0 0.00 0.00 0.00 79 1014.3
20260831063355 82 152 0.0 0.0 0.00 0.00 0.00 79 1014.5
20260831062850 83 158 0.0 0.0 0.00 0.00 0.00 79 1014.6
20260831062345 83 175 0.0 0.0 0.00 0.00 0.00 78 1014.6
20260831061844 83 144 0.0 0.0 0.00 0.00 0.00 78 1014.7
20260831061343 83 176 0.0 0.0 0.00 0.00 0.00 77 1014.7
20260831060840 83 185 0.0 0.0 0.00 0.00 0.00 77 1014.6
20260831060339 83 268 1.0 2.0 0.00 0.00 0.00 77 1014.6
20260831055839 83 159 0.0 0.0 0.00 0.00 0.00 76 1014.7
20260831055334 83 147 0.0 0.0 0.00 0.00 0.00 76 1014.4